[[{"header":{"parameterUnit":"m.s-1","parameterCategory":1,"la1":30.2991,"la2":30.254,"lo1":-89.0895,"lo2":-89.0444,"dy":0.0017,"dx":0.0017,"nx":28,"ny":28,"refTime":"2025-03-17T03:00:00:Z","depth":0,"parameterNumber":2,"parameterNumberName":"U-component_of_WINDS"},"data":[0,0,0,0,0,0,0,0,0,0,0,0,0,0,0,0,0,0,0,0,0,0,0,0,0,0,0,0,0,0,0,0,0,0,0,0,0,0,0,0,0,0,0,0,0,0,0,0,0,0,0,0,0,0,0,0,0,0,0.59,0.5899,0,0.5824,0.5824,0.5823,0.5764,0.5763,0.5763,0.5762,0.5686,0.5684,0.5683,0,0,0,0,0,0,0,0,0,0,0,0,0,0.5995,0.5994,0.59,0.5899,0.5898,0.5825,0.5824,0.5823,0.5764,0.5763,0.5763,0.5762,0.5686,0.5684,0.5683,0,0,0,0,0,0,0,0,0,0,0,0,0,0.594,0.5993,0.59,0.586,0.5856,0.5825,0.5824,0.5822,0.5764,0.5763,0.5762,0.5762,0.5687,0.5685,0.5682,0.5686,0,0,0.5676,0.5675,0,0,0,0,0,0,0,0,0.5943,0.5937,0.5867,0.5863,0.5858,0.5803,0.5829,0.5777,0.5764,0.5799,0.5762,0.5761,0.5725,0.572,0.5708,0.5682,0.5679,0.5675,0.5674,0.5673,0.5672,0,0,0,0,0,0,0,0.5947,0.594,0.587,0.5866,0.5861,0.5846,0.5838,0.5819,0.5768,0.5796,0.5791,0.5783,0.5723,0.571,0.5705,0.5678,0.5675,0.5673,0.5672,0.5671,0.5652,0.5652,0,0,0,0,0,0,0.5957,0.5943,0.5873,0.5868,0.5899,0.5845,0.5835,0.5821,0.5768,0.5759,0.5784,0.5781,0.5714,0.5708,0.5703,0.5703,0.5673,0.5671,0.567,0.5651,0.5652,0.5653,0,0,0,0,0,0,0.5959,0.5951,0.5876,0.5904,0.5894,0.5845,0.5829,0.582,0.5807,0.5759,0.575,0.578,0.5713,0.5706,0.569,0.57,0.567,0.5668,0.565,0.5651,0.5652,0.5705,0,0,0,0,0,0,0.5962,0.5953,0.5953,0.5905,0.5892,0.5865,0.583,0.5819,0.5803,0.5799,0.5753,0.5745,0.5712,0.5694,0.5688,0.5696,0.5666,0.5649,0.565,0.5652,0.5702,0.5708,0.5712,0,0,0,0,0,0.5966,0.5971,0.5953,0.5945,0.5892,0.5865,0.5858,0.582,0.5804,0.5805,0.5774,0.5746,0.57,0.5693,0.5686,0.5693,0.5648,0.565,0.5652,0.57,0.5706,0.5712,0,0,0,0,0,0,0.6022,0.5964,0.5944,0.5933,0.5905,0.5855,0.5854,0.5829,0.5804,0.5801,0.5755,0.5745,0.5735,0.5712,0.5706,0.5694,0.567,0.5671,0.5709,0.5715,0.572,0.5726,0.5664,0,0,0,0,0,0.6033,0.6016,0.5966,0.5961,0.5948,0.5904,0.5891,0.5864,0.5833,0.5821,0.5788,0.576,0.5738,0.5726,0.5703,0.5698,0.5688,0.57,0.5705,0.571,0.5711,0.5707,0.5712,0.5659,0.5659,0.5659,0,0,0.6055,0.6022,0.6014,0.5972,0.5946,0.593,0.5894,0.5878,0.5866,0.5818,0.5802,0.5778,0.5742,0.5732,0.5726,0.5713,0.5723,0.5712,0.5716,0.5715,0.571,0.5715,0.5719,0.566,0.566,0.566,0,0,0.6088,0.6061,0.6054,0.603,0.5992,0.5962,0.5961,0.5916,0.5898,0.588,0.5844,0.5829,0.5794,0.577,0.5754,0.5779,0.5752,0.5773,0.58,0.5797,0.5801,0.5805,0.5814,0.5818,0.5774,0.5774,0.5774,0,0.6121,0.6095,0.6054,0.6041,0.6024,0.5979,0.5973,0.5951,0.5908,0.5898,0.5884,0.5838,0.5811,0.5796,0.5802,0.579,0.5787,0.5778,0.5804,0.5807,0.581,0.5818,0.5822,0.5777,0.5776,0.5776,0.5776,0,0.6138,0.612,0.612,0.6079,0.6062,0.6052,0.601,0.5998,0.5973,0.5945,0.5929,0.5895,0.5865,0.586,0.5835,0.5841,0.5834,0.5813,0.5788,0.5818,0.5826,0.5829,0.5781,0.578,0.5779,0.5778,0,0,0.6204,0.6141,0.6142,0.6123,0.6078,0.6064,0.6052,0.6023,0.6014,0.5986,0.5975,0.5946,0.5927,0.5908,0.588,0.5878,0.59,0.5857,0.5855,0.5867,0.5905,0.5922,0.5927,0.5883,0.5883,0.5884,0.5909,0,0.623,0.6206,0.617,0.6158,0.6142,0.61,0.609,0.6061,0.6035,0.6018,0.5989,0.597,0.5945,0.5934,0.5929,0.5899,0.5908,0.5896,0.5873,0.5873,0.5884,0.593,0.5948,0.5973,0.5911,0.5912,0.5912,0,0.6258,0.6232,0.6219,0.6176,0.6168,0.6159,0.613,0.6114,0.6081,0.6062,0.6042,0.6012,0.5998,0.5976,0.5956,0.595,0.5938,0.5922,0.5922,0.5919,0.5895,0.5929,0.598,0.5984,0.5916,0.5915,0.5915,0,0.6308,0.627,0.6258,0.6243,0.6192,0.6187,0.6166,0.6132,0.6117,0.6092,0.6082,0.6055,0.6041,0.6022,0.5986,0.5972,0.5971,0.5945,0.5955,0.5956,0.5957,0.5958,0.6008,0.5949,0.5949,0.5949,0.5949,0,0.6342,0.6336,0.628,0.6272,0.6264,0.6222,0.6215,0.619,0.6161,0.6148,0.611,0.6099,0.6052,0.6035,0.6007,0.5996,0.599,0.5975,0.5967,0.5978,0.598,0.597,0.5968,0.595,0.595,0.595,0.5949,0,0.6397,0.6359,0.6343,0.6296,0.6284,0.628,0.624,0.6232,0.6203,0.6188,0.6182,0.6138,0.6117,0.6079,0.6047,0.6028,0.6023,0.601,0.6034,0.6029,0.6042,0.6042,0.6088,0.6092,0.6031,0.6031,0.6032,0,0.6421,0.6415,0.6368,0.6357,0.6337,0.6319,0.6303,0.6261,0.6247,0.621,0.6206,0.6182,0.616,0.6128,0.6094,0.6069,0.6056,0.6074,0.6052,0.6064,0.6057,0.6058,0.6058,0.6079,0.608,0.6081,0.6081,0,0.6468,0.645,0.6429,0.6402,0.6384,0.6361,0.6335,0.6328,0.6281,0.6267,0.6245,0.6228,0.6195,0.6172,0.6143,0.6121,0.6094,0.6088,0.6089,0.6101,0.6115,0.6108,0.6048,0.6087,0.6087,0.6086,0.6086,0.6086,0.6509,0.6502,0.6468,0.6446,0.6422,0.64,0.6389,0.636,0.634,0.631,0.6287,0.6267,0.6235,0.6193,0.6173,0.6157,0.6144,0.6146,0.6146,0.6147,0.6152,0.6118,0.6151,0.6151,0.6151,0.6151,0.6151,0,0.6555,0.6531,0.6511,0.6477,0.646,0.6435,0.6405,0.6393,0.6375,0.6348,0.6327,0.6302,0.6279,0.6243,0.6218,0.6212,0.6199,0.6207,0.6207,0.6203,0.6165,0.6167,0.6218,0.6218,0.6218,0.6218,0.6218,0.6218,0.6577,0.6564,0.6542,0.6518,0.6493,0.6473,0.6458,0.6438,0.6415,0.6389,0.637,0.6346,0.6315,0.6287,0.6266,0.6256,0.6249,0.6261,0.6247,0.6212,0.6206,0.62,0.6201,0.6259,0.6259,0.6287,0.6287,0.6287]},{"header":{"parameterUnit":"m.s-1","parameterCategory":1,"la1":30.2991,"la2":30.254,"lo1":-89.0895,"lo2":-89.0444,"dy":0.0017,"dx":0.0017,"nx":28,"ny":28,"refTime":"2025-03-17T03:00:00:Z","depth":0,"parameterNumber":3,"parameterNumberName":"V-component_of_WINDS"},"data":[0,0,0,0,0,0,0,0,0,0,0,0,0,0,0,0,0,0,0,0,0,0,0,0,0,0,0,0,0,0,0,0,0,0,0,0,0,0,0,0,0,0,0,0,0,0,0,0,0,0,0,0,0,0,0,0,0,0,-1.0821,-1.0823,0,-1.0967,-1.0969,-1.097,-1.1027,-1.1026,-1.1026,-1.1025,-1.1177,-1.1181,-1.1185,0,0,0,0,0,0,0,0,0,0,0,0,0,-1.0593,-1.0597,-1.0821,-1.0823,-1.0825,-1.0967,-1.0969,-1.0971,-1.1027,-1.1026,-1.1026,-1.1025,-1.1175,-1.1181,-1.1186,0,0,0,0,0,0,0,0,0,0,0,0,0,-1.0711,-1.0598,-1.0821,-1.087,-1.0876,-1.0966,-1.0969,-1.0971,-1.1027,-1.1026,-1.1025,-1.1025,-1.1174,-1.118,-1.1187,-1.124,0,0,-1.1207,-1.121,0,0,0,0,0,0,0,0,-1.0704,-1.0719,-1.0861,-1.0866,-1.0873,-1.0978,-1.0944,-1.1062,-1.1027,-1.0969,-1.1025,-1.1025,-1.1111,-1.1123,-1.1152,-1.1247,-1.1254,-1.1207,-1.1211,-1.1214,-1.1216,0,0,0,0,0,0,0,-1.0696,-1.0713,-1.0879,-1.0863,-1.087,-1.0885,-1.0901,-1.0967,-1.1042,-1.0974,-1.0979,-1.0995,-1.1115,-1.1145,-1.1156,-1.1256,-1.1207,-1.1213,-1.1217,-1.122,-1.1403,-1.1404,0,0,0,0,0,0,-1.0679,-1.0706,-1.0874,-1.0883,-1.0785,-1.089,-1.0908,-1.0945,-1.1042,-1.1056,-1.0995,-1.0997,-1.1134,-1.1148,-1.1161,-1.1231,-1.1214,-1.1221,-1.1224,-1.1402,-1.1404,-1.1404,0,0,0,0,0,0,-1.0674,-1.0694,-1.0868,-1.0796,-1.0819,-1.0894,-1.0936,-1.0948,-1.0979,-1.1058,-1.1072,-1.1013,-1.1134,-1.1152,-1.122,-1.1237,-1.1224,-1.123,-1.1401,-1.1403,-1.1404,-1.1369,0,0,0,0,0,0,-1.0667,-1.0692,-1.0712,-1.0796,-1.0823,-1.0924,-1.0937,-1.0951,-1.099,-1.0994,-1.1078,-1.1091,-1.1135,-1.121,-1.1227,-1.1246,-1.1235,-1.14,-1.1402,-1.1404,-1.1369,-1.1369,-1.1369,0,0,0,0,0,-1.0659,-1.0697,-1.0713,-1.0733,-1.085,-1.0925,-1.094,-1.099,-1.0991,-1.1013,-1.1063,-1.1088,-1.1232,-1.1216,-1.1236,-1.1257,-1.1399,-1.1402,-1.1403,-1.1369,-1.1369,-1.1369,0,0,0,0,0,0,-1.0614,-1.0709,-1.0728,-1.0794,-1.0851,-1.0934,-1.0963,-1.0988,-1.1047,-1.1048,-1.1107,-1.1126,-1.1189,-1.123,-1.1211,-1.1314,-1.1318,-1.1324,-1.1285,-1.1286,-1.1285,-1.1274,-1.124,0,0,0,0,0,-1.0612,-1.0664,-1.0744,-1.0795,-1.0822,-1.0887,-1.0922,-1.0955,-1.1017,-1.1041,-1.1097,-1.1157,-1.1215,-1.1253,-1.1311,-1.1375,-1.1395,-1.14,-1.1399,-1.1399,-1.1404,-1.1441,-1.1444,-1.1411,-1.1411,-1.1411,0,0,-1.0608,-1.0666,-1.0695,-1.0787,-1.0835,-1.0888,-1.0907,-1.0963,-1.1003,-1.105,-1.1118,-1.116,-1.1231,-1.1297,-1.1329,-1.1333,-1.1417,-1.1402,-1.1401,-1.1406,-1.1443,-1.1446,-1.1449,-1.1412,-1.1412,-1.1412,0,0,-1.0627,-1.0676,-1.0724,-1.0772,-1.0844,-1.0887,-1.0898,-1.0978,-1.1008,-1.1077,-1.1113,-1.1162,-1.1262,-1.1311,-1.1348,-1.1386,-1.1411,-1.1404,-1.1404,-1.1439,-1.1442,-1.1444,-1.1458,-1.1462,-1.1408,-1.1408,-1.1408,0,-1.0613,-1.0694,-1.0745,-1.0799,-1.0838,-1.0883,-1.0931,-1.0975,-1.1063,-1.109,-1.1093,-1.1219,-1.127,-1.1348,-1.1357,-1.1386,-1.1401,-1.1394,-1.1437,-1.144,-1.1443,-1.1457,-1.1462,-1.1406,-1.1407,-1.1407,-1.1407,0,-1.0673,-1.0729,-1.0759,-1.0841,-1.0884,-1.0935,-1.0995,-1.1032,-1.1062,-1.1105,-1.1174,-1.1236,-1.1308,-1.1329,-1.1359,-1.1412,-1.1412,-1.1425,-1.143,-1.1444,-1.1458,-1.1464,-1.1404,-1.1405,-1.1405,-1.1406,0,0,-1.0669,-1.0779,-1.0789,-1.0827,-1.091,-1.0954,-1.1007,-1.1077,-1.1108,-1.1167,-1.1213,-1.1297,-1.1309,-1.1352,-1.1388,-1.1419,-1.1445,-1.1429,-1.1431,-1.1429,-1.1508,-1.1497,-1.1502,-1.1462,-1.1463,-1.1464,-1.1502,0,-1.07,-1.0796,-1.0843,-1.0919,-1.0971,-1.1014,-1.106,-1.1116,-1.1158,-1.1209,-1.1255,-1.1313,-1.1325,-1.1351,-1.1384,-1.1435,-1.1461,-1.1433,-1.1506,-1.1508,-1.1487,-1.151,-1.1499,-1.1531,-1.1507,-1.1508,-1.1509,0,-1.0748,-1.0806,-1.0886,-1.0963,-1.0987,-1.1027,-1.1095,-1.1143,-1.1207,-1.1236,-1.1283,-1.1318,-1.1376,-1.1376,-1.1458,-1.1437,-1.147,-1.1499,-1.1502,-1.1511,-1.1509,-1.1519,-1.1543,-1.1547,-1.1518,-1.1517,-1.1517,0,-1.0737,-1.0835,-1.0896,-1.0927,-1.1018,-1.1046,-1.1085,-1.1149,-1.1188,-1.1247,-1.1273,-1.1338,-1.1374,-1.1424,-1.1476,-1.1471,-1.1552,-1.1557,-1.1577,-1.1576,-1.1593,-1.1591,-1.1622,-1.1614,-1.1614,-1.1613,-1.1613,0,-1.0766,-1.0814,-1.0892,-1.0929,-1.0984,-1.1038,-1.1091,-1.1134,-1.1191,-1.1238,-1.1279,-1.1322,-1.1388,-1.144,-1.148,-1.1542,-1.1558,-1.1582,-1.1593,-1.1579,-1.1575,-1.1601,-1.16,-1.1615,-1.1615,-1.1614,-1.1614,0,-1.0763,-1.0817,-1.0886,-1.0966,-1.0987,-1.1024,-1.1093,-1.1131,-1.1175,-1.1234,-1.1251,-1.1319,-1.1382,-1.1439,-1.1523,-1.155,-1.1613,-1.1626,-1.159,-1.1596,-1.1613,-1.1611,-1.1662,-1.1671,-1.1656,-1.1657,-1.1657,0,-1.0778,-1.0815,-1.0899,-1.0933,-1.0971,-1.1026,-1.1065,-1.112,-1.116,-1.1236,-1.1266,-1.1331,-1.1387,-1.1486,-1.1544,-1.1608,-1.1623,-1.1636,-1.1633,-1.1618,-1.1623,-1.162,-1.1624,-1.1636,-1.1636,-1.1636,-1.1636,0,-1.0799,-1.0824,-1.0878,-1.0943,-1.0988,-1.1042,-1.1096,-1.1122,-1.1188,-1.123,-1.1295,-1.1338,-1.1423,-1.1488,-1.1559,-1.16,-1.1629,-1.1636,-1.1644,-1.163,-1.1608,-1.1621,-1.1589,-1.1635,-1.1635,-1.1635,-1.1635,-1.1635,-1.0806,-1.0841,-1.0905,-1.0965,-1.1011,-1.1062,-1.1101,-1.1149,-1.1204,-1.1277,-1.1307,-1.1372,-1.1436,-1.1534,-1.1576,-1.1628,-1.1634,-1.1646,-1.1649,-1.1651,-1.1648,-1.16,-1.1641,-1.1642,-1.1642,-1.1642,-1.1642,0,-1.0829,-1.0872,-1.0926,-1.1001,-1.1048,-1.107,-1.1132,-1.117,-1.1227,-1.1284,-1.1337,-1.1412,-1.1475,-1.1537,-1.1604,-1.1634,-1.1649,-1.165,-1.1648,-1.1658,-1.164,-1.1626,-1.1637,-1.1637,-1.1637,-1.1637,-1.1637,-1.1637,-1.0846,-1.0907,-1.0939,-1.1024,-1.1067,-1.1131,-1.1164,-1.1211,-1.1257,-1.1337,-1.139,-1.143,-1.1489,-1.1561,-1.162,-1.1637,-1.166,-1.1657,-1.1677,-1.1659,-1.1659,-1.1659,-1.1646,-1.1661,-1.1661,-1.1691,-1.1691,-1.1691]}]]